This is the latest recevied weather packets stored in our database for station/object SA7NOA-14. If no packets are shown the sender has not sent any weather packets the latest 10 day(s).
| Time | Temp. | Humidity | Pressure | Rain* | Wind** | Luminosity | Snow |
|---|---|---|---|---|---|---|---|
| 1788546605 | 13.33° C | 94% | 997.6 hPa | 0.51 mm | - | - | - |
| 1788545704 | 13.89° C | 94% | 997.6 hPa | 0.51 mm | - | - | - |
| 1788542104 | 14.44° C | 95% | 998 hPa | - | - | - | - |
| 1788535802 | 13.33° C | 92% | 998.9 hPa | - | - | - | - |
| 1788534901 | 13.33° C | 92% | 998.9 hPa | - | - | - | - |
| 1788532203 | 13.33° C | 88% | 999.3 hPa | - | - | - | - |
| 1788527704 | 13.89° C | 71% | 999.5 hPa | 0 mm | - | - | - |
| 1788525001 | 14.44° C | 72% | 999.9 hPa | - | - | - | - |
| 1788523204 | 15° C | 72% | 999.9 hPa | - | - | - | - |
| 1788521402 | 15° C | 82% | 1001 hPa | - | - | - | - |
| 1788517803 | 15.56° C | 82% | 1001.4 hPa | - | - | - | - |
| 1788514205 | 15° C | 83% | 1001.9 hPa | - | - | - | - |
| 1788513304 | 15° C | 83% | 1001.9 hPa | - | - | - | - |
| 1788510601 | 14.44° C | 85% | 1002.2 hPa | - | - | - | - |
| 1788509705 | 15° C | 85% | 1002.2 hPa | - | - | - | - |
| 1788508804 | 14.44° C | 85% | 1002.2 hPa | - | - | - | - |
| 1788507903 | 13.89° C | 85% | 1002.2 hPa | - | - | - | - |
| 1788507002 | 13.89° C | 87% | 1002.6 hPa | - | - | - | - |
| 1788506101 | 13.89° C | 87% | 1002.6 hPa | - | - | - | - |
| 1788503403 | 13.33° C | 88% | 1003 hPa | - | - | - | - |
| 1788502502 | 12.78° C | 88% | 1003 hPa | - | - | - | - |
| 1788501601 | 12.78° C | 88% | 1003 hPa | - | - | - | - |
| 1788499804 | 12.22° C | 90% | 1002.5 hPa | - | - | - | - |
| 1788498904 | 12.22° C | 90% | 1002.5 hPa | - | - | - | - |
| 1788498002 | 12.22° C | 90% | 1002.5 hPa | - | - | - | - |
* Rain latest hour (hover to see other rain measurements)
** Current wind speed in m/s (hover to see current wind gust speed)